TimeCST,TemperatureF,Dew PointF,Humidity,Sea Level PressureIn,VisibilityMPH,Wind Direction,Wind SpeedMPH,Gust SpeedMPH,PrecipitationIn,Events,Conditions,WindDirDegrees,DateUTC
12:53 AM,39.0,26.1,60,30.29,10.0,South,13.8,19.6,N/A,,Overcast,180,2014-01-08 06:53:00
1:53 AM,39.0,30.9,73,30.27,10.0,South,9.2,17.3,N/A,,Overcast,180,2014-01-08 07:53:00
2:28 AM,37.9,34.0,86,30.27,8.0,South,9.2,-,N/A,,Overcast,180,2014-01-08 08:28:00
2:53 AM,37.0,34.0,89,30.26,7.0,South,5.8,-,N/A,,Overcast,170,2014-01-08 08:53:00
3:24 AM,37.0,35.1,93,30.24,5.0,South,5.8,-,N/A,,Overcast,170,2014-01-08 09:24:00
3:53 AM,37.0,35.1,93,30.24,5.0,South,5.8,-,N/A,,Overcast,170,2014-01-08 09:53:00
4:53 AM,37.0,35.1,93,30.23,3.0,South,5.8,-,N/A,,Overcast,180,2014-01-08 10:53:00
5:35 AM,37.0,36.0,96,30.21,2.5,SSE,4.6,-,N/A,,Overcast,160,2014-01-08 11:35:00
5:44 AM,37.0,36.0,96,30.20,3.0,SSE,3.5,-,N/A,,Overcast,160,2014-01-08 11:44:00
5:53 AM,37.0,36.0,96,30.21,4.0,South,5.8,-,N/A,,Overcast,170,2014-01-08 11:53:00
6:53 AM,37.0,36.0,96,30.20,4.0,SE,4.6,-,0.00,,Overcast,140,2014-01-08 12:53:00
7:53 AM,37.9,37.0,97,30.22,5.0,South,4.6,-,N/A,,Overcast,170,2014-01-08 13:53:00
8:35 AM,39.0,37.9,96,30.22,1.8,South,3.5,-,N/A,,Overcast,170,2014-01-08 14:35:00
8:53 AM,39.0,37.9,96,30.24,2.5,SSE,4.6,-,0.00,,Overcast,160,2014-01-08 14:53:00
9:11 AM,39.0,37.9,96,30.23,1.5,Calm,Calm,-,N/A,,Overcast,0,2014-01-08 15:11:00
9:27 AM,39.9,39.0,97,30.23,3.0,SSE,6.9,-,N/A,,Overcast,150,2014-01-08 15:27:00
9:53 AM,41.0,39.9,96,30.24,5.0,SSE,5.8,-,N/A,,Overcast,160,2014-01-08 15:53:00
10:53 AM,43.0,42.1,97,30.23,5.0,South,6.9,-,N/A,,Overcast,170,2014-01-08 16:53:00
11:53 AM,45.0,43.0,93,30.19,6.0,South,9.2,-,N/A,,Overcast,170,2014-01-08 17:53:00
12:53 PM,46.9,45.0,93,30.14,5.0,South,8.1,-,N/A,,Overcast,170,2014-01-08 18:53:00
1:53 PM,48.9,46.9,93,30.12,5.0,SSE,6.9,-,N/A,,Overcast,160,2014-01-08 19:53:00
2:17 PM,50.0,46.9,89,30.12,9.0,SSE,5.8,-,N/A,,Overcast,160,2014-01-08 20:17:00
2:25 PM,50.0,48.0,93,30.12,9.0,SSE,4.6,-,N/A,,Overcast,160,2014-01-08 20:25:00
2:53 PM,52.0,48.0,86,30.11,10.0,SSE,6.9,-,N/A,,Overcast,160,2014-01-08 20:53:00
3:53 PM,53.1,48.9,86,30.10,10.0,South,5.8,-,N/A,,Overcast,170,2014-01-08 21:53:00
4:16 PM,53.1,48.9,86,30.11,10.0,SSE,5.8,-,N/A,,Overcast,160,2014-01-08 22:16:00
4:36 PM,52.0,48.9,89,30.11,9.0,SSE,5.8,-,N/A,,Overcast,150,2014-01-08 22:36:00
4:53 PM,52.0,50.0,93,30.11,9.0,SSE,6.9,-,N/A,,Overcast,160,2014-01-08 22:53:00
5:01 PM,52.0,50.0,93,30.11,9.0,SSE,5.8,-,N/A,,Overcast,160,2014-01-08 23:01:00
5:32 PM,52.0,50.0,93,30.12,9.0,South,5.8,-,N/A,,Overcast,170,2014-01-08 23:32:00
5:53 PM,52.0,50.0,93,30.11,9.0,SSE,6.9,-,N/A,,Overcast,160,2014-01-08 23:53:00
6:10 PM,52.0,50.0,93,30.10,6.0,SSE,8.1,-,N/A,,Overcast,160,2014-01-09 00:10:00
6:25 PM,51.1,50.0,96,30.12,6.0,South,6.9,-,N/A,,Overcast,170,2014-01-09 00:25:00
6:34 PM,51.1,50.0,96,30.12,6.0,SSE,5.8,-,N/A,,Overcast,160,2014-01-09 00:34:00
6:53 PM,51.1,50.0,96,30.12,6.0,South,5.8,-,N/A,,Overcast,170,2014-01-09 00:53:00
7:09 PM,51.1,50.0,96,30.13,6.0,South,5.8,-,N/A,,Overcast,170,2014-01-09 01:09:00
7:50 PM,51.8,50.0,94,30.14,6.0,SSE,3.5,-,N/A,,Overcast,160,2014-01-09 01:50:00
7:53 PM,51.1,48.9,92,30.14,6.0,SSE,4.6,-,N/A,,Overcast,160,2014-01-09 01:53:00
8:12 PM,51.1,48.9,92,30.14,6.0,SSE,3.5,-,N/A,,Overcast,150,2014-01-09 02:12:00
8:53 PM,51.1,50.0,96,30.17,7.0,South,4.6,-,N/A,,Overcast,190,2014-01-09 02:53:00
9:09 PM,51.1,50.0,96,30.16,7.0,South,5.8,-,N/A,,Overcast,180,2014-01-09 03:09:00
9:53 PM,52.0,50.0,93,30.14,7.0,South,6.9,-,N/A,,Overcast,180,2014-01-09 03:53:00
10:04 PM,52.0,50.0,93,30.14,7.0,South,5.8,-,N/A,,Overcast,170,2014-01-09 04:04:00
10:51 PM,51.8,50.0,94,30.15,5.0,South,6.9,-,N/A,,Overcast,170,2014-01-09 04:51:00
10:53 PM,52.0,50.0,93,30.15,5.0,South,8.1,-,N/A,,Overcast,170,2014-01-09 04:53:00
11:53 PM,52.0,51.1,97,30.15,5.0,South,4.6,-,N/A,,Overcast,190,2014-01-09 05:53:00